CZ-3C DEB, 40200

Orbit data source: Space-Track

CZ-3C DEB, 40200 is space debris in HEO originally from a launch on Fri, 24 Feb 2012 UTC launched from the Xichang Space Center, China (XSC). Debris objects in space refer to the collection of defunct objects orbiting the Earth. Examples of debris include non-operational satellites, rocket bodies, and fragments generated from explosions, collisions, or faulty payload assembly.

Loading next visibility...
Identifier
40200, 2012-008K
Orbit
HEO
Country
Flag of CNCN / PRC
Related business
Manufacturer
CALT
Mission
Spacecraft
Bus & Motor
Unknown
Mass
Unknown
Launch date (UTC)
2012-02-24 (14 years ago)
Launch vehicle
Unknown
Launch site
Xichang Space Center, China (XSC)
Object type
Payload
Rocket body
Debris
Shape & HBR
Unknown
Radar Cross Section
Medium (>0.1 m² and <1 m²)

Expand to show TLE details & history
Last TLE update: 1 week ago

TLE from 1 week ago
0 CZ-3C DEB
1 40200U 12008K   25252.33452462 -.00000134  00000-0  00000-0 0  9991
2 40200  21.3984 340.0373 6990695 340.5026   2.6783  2.19213145 92565
Epoch: 2025-09-09T08:01Z
TLE epoch observation values (Epoch: 2025-09-09T08:01:42.927Z)
Latitude
-0.00015°
Longitude
-129.00328°
Altitude
1,315.426 km
Speed
9.364 km/s
True Right ascension
22h 40m 12s
True Declination
0° 00' 01"
Sunlit
Object was in full shadow at epoch
Visualization orbit readout
Latitude
Unknown
Longitude
Unknown
Altitude
Unknown
Speed
Unknown
Apparent Right ascension
Unknown
Apparent Declination
Unknown
Sunlit
N/A
Visualization observer readout
Local Sidereal Time
08:16:23
Azimuth
Unknown
Elevation
Unknown
Doppler factor
Unknown
Orbital elements
Apogee altitude
36,159.074 km
Perigee altitude
1,155.836 km
Semi-major axis
25,035.592 km
Eccentricity
0.69907
Inclination
21.3984°
RAAN
340.0373°
Arg. of periapsis
340.5026°
True anomaly
20.76691°
Mean anomaly
2.6783°
Eccentric anomaly
8.81926°
Mean motion
0.54791 °/min
Orbital period
657.05 mins
BSTAR
0
Loading maneuver chart data...
Computing Atmospheric mass density...
Loading historical data...
Loading historical data...
Loading historical data...
Loading historical data...
Loading historical data...
Loading historical data...
Loading historical data...

Documentation

Showing up to 5 results
|